[[{"header":{"parameterUnit":"m.s-1","parameterCategory":1,"la1":30.2991,"la2":30.254,"lo1":-89.0895,"lo2":-89.0444,"dy":0.0017,"dx":0.0017,"nx":28,"ny":28,"refTime":"2025-09-19T09:00:00:Z","depth":0,"parameterNumber":2,"parameterNumberName":"U-component_of_WINDS"},"data":[0,0,0,0,0,0,0,0,0,0,0,0,0,0,0,0,0,0,0,0,0,0,0,0,0,0,0,0,0,0,0,0,0,0,0,0,0,0,0,0,0,0,0,0,0,0,0,0,0,0,0,0,0,0,0,0,0,0,1.3834,1.3835,0,1.397,1.3972,1.3973,1.4008,1.4007,1.4006,1.4005,1.4146,1.415,1.4155,0,0,0,0,0,0,0,0,0,0,0,0,0,1.3603,1.3607,1.3833,1.3835,1.3837,1.397,1.3972,1.3974,1.4008,1.4007,1.4006,1.4005,1.4145,1.415,1.4155,0,0,0,0,0,0,0,0,0,0,0,0,0,1.3718,1.3608,1.3833,1.387,1.3875,1.3969,1.3972,1.3974,1.4008,1.4007,1.4005,1.4004,1.4143,1.4149,1.4156,1.4225,0,0,1.4177,1.418,0,0,0,0,0,0,0,0,1.3711,1.3726,1.3863,1.3868,1.3873,1.397,1.3942,1.4058,1.4008,1.3957,1.4005,1.4003,1.4089,1.41,1.4128,1.4231,1.4237,1.4178,1.4182,1.4185,1.4187,0,0,0,0,0,0,0,1.3703,1.372,1.3888,1.3865,1.3871,1.388,1.3895,1.3964,1.4029,1.3962,1.3965,1.398,1.4091,1.4122,1.4132,1.4239,1.4178,1.4184,1.4188,1.419,1.4405,1.4407,0,0,0,0,0,0,1.3689,1.3713,1.3883,1.3892,1.3787,1.3885,1.3902,1.394,1.4028,1.404,1.3981,1.3981,1.4111,1.4124,1.4137,1.4223,1.4185,1.4191,1.4195,1.4403,1.4405,1.4407,0,0,0,0,0,0,1.3683,1.3703,1.3878,1.3803,1.3826,1.389,1.3934,1.3944,1.3974,1.4043,1.4054,1.4,1.411,1.4127,1.4202,1.4228,1.4194,1.42,1.4402,1.4404,1.4406,1.4395,0,0,0,0,0,0,1.3677,1.3701,1.3728,1.3804,1.383,1.394,1.3935,1.3947,1.3986,1.3987,1.4064,1.4075,1.4111,1.4192,1.4209,1.4237,1.4206,1.44,1.4403,1.4405,1.4393,1.4397,1.4399,0,0,0,0,0,1.3668,1.3719,1.3729,1.3749,1.3864,1.3942,1.3957,1.3996,1.3988,1.4015,1.4059,1.4073,1.4223,1.4199,1.4219,1.4249,1.4398,1.4402,1.4405,1.4392,1.4396,1.4399,0,0,0,0,0,0,1.3645,1.373,1.3742,1.3819,1.3873,1.3947,1.3983,1.3999,1.4057,1.4056,1.4102,1.4119,1.4191,1.4228,1.4201,1.432,1.431,1.4318,1.4293,1.4298,1.4301,1.4291,1.4212,0,0,0,0,0,1.3649,1.3705,1.3776,1.3837,1.3864,1.3918,1.3954,1.3979,1.4037,1.406,1.411,1.4166,1.4225,1.4264,1.4323,1.4399,1.4416,1.4429,1.4432,1.4435,1.4441,1.4484,1.4491,1.4419,1.4419,1.4419,0,0,1.3658,1.3711,1.3743,1.3834,1.3879,1.3935,1.3938,1.3997,1.404,1.407,1.4143,1.4181,1.4247,1.4323,1.4359,1.4356,1.4464,1.4439,1.444,1.4446,1.4488,1.4495,1.4501,1.4421,1.4421,1.442,0,0,1.3702,1.3748,1.3804,1.3849,1.3917,1.3953,1.3966,1.4039,1.4065,1.4139,1.4163,1.4214,1.4316,1.4362,1.4398,1.446,1.4475,1.4478,1.4494,1.4535,1.4541,1.4546,1.4568,1.4576,1.4484,1.4484,1.4484,0,1.3704,1.379,1.3831,1.389,1.3929,1.3958,1.4015,1.4056,1.414,1.4166,1.4161,1.429,1.4336,1.4423,1.4438,1.4467,1.4483,1.4469,1.4537,1.4543,1.4548,1.457,1.4578,1.4484,1.4484,1.4484,1.4484,0,1.3789,1.3849,1.3886,1.3965,1.4009,1.4066,1.4116,1.4155,1.4176,1.4213,1.4289,1.4345,1.4416,1.4438,1.446,1.4528,1.4524,1.4528,1.4519,1.4554,1.4575,1.4584,1.4483,1.4483,1.4483,1.4484,0,0,1.3823,1.3924,1.3937,1.3974,1.405,1.4097,1.4156,1.4225,1.4257,1.4314,1.4365,1.445,1.4454,1.4495,1.4522,1.4559,1.4604,1.4558,1.456,1.4564,1.4683,1.4679,1.4688,1.4614,1.4616,1.4617,1.4677,0,1.3877,1.3983,1.4021,1.4109,1.4164,1.4192,1.4243,1.4296,1.4332,1.4384,1.4424,1.4484,1.4484,1.4509,1.4547,1.459,1.4628,1.4587,1.4662,1.4664,1.4645,1.4699,1.4696,1.475,1.4685,1.4687,1.4688,0,1.3954,1.4012,1.4104,1.4174,1.4199,1.4244,1.431,1.436,1.442,1.4444,1.449,1.4514,1.4577,1.4565,1.4652,1.4623,1.4656,1.4682,1.4685,1.4694,1.4678,1.4709,1.4768,1.4776,1.4701,1.47,1.4699,0,1.397,1.407,1.4138,1.4169,1.4252,1.4283,1.4319,1.4378,1.4417,1.4475,1.4501,1.4565,1.46,1.465,1.4691,1.4678,1.4775,1.4765,1.4796,1.4795,1.4816,1.4814,1.488,1.4837,1.4837,1.4837,1.4836,0,1.4026,1.4081,1.4146,1.4188,1.4251,1.4295,1.4356,1.4394,1.4446,1.4496,1.4525,1.4571,1.4623,1.4677,1.471,1.4777,1.4793,1.4814,1.4822,1.4811,1.4809,1.4834,1.4831,1.4839,1.4838,1.4838,1.4837,0,1.4053,1.4099,1.4176,1.4248,1.4268,1.4311,1.4373,1.4415,1.4452,1.4515,1.4532,1.459,1.4655,1.4701,1.4784,1.4806,1.4878,1.4886,1.4858,1.4862,1.489,1.4887,1.4975,1.4989,1.4936,1.4936,1.4937,0,1.4086,1.413,1.4207,1.4242,1.4278,1.4335,1.4375,1.4419,1.4459,1.4531,1.4564,1.463,1.4685,1.4787,1.4837,1.49,1.491,1.4937,1.492,1.4908,1.4911,1.4908,1.4912,1.4939,1.494,1.494,1.494,0,1.414,1.416,1.4216,1.428,1.4326,1.4379,1.4432,1.4459,1.4513,1.4557,1.4622,1.4665,1.4749,1.4815,1.4883,1.4921,1.494,1.4945,1.4956,1.4945,1.4927,1.4937,1.4864,1.4943,1.4942,1.4942,1.4942,1.4942,1.4171,1.4211,1.4272,1.4333,1.4377,1.4426,1.4469,1.4511,1.4567,1.4638,1.4661,1.4729,1.4789,1.4883,1.4921,1.4975,1.4974,1.499,1.4994,1.4997,1.4996,1.4918,1.4988,1.4988,1.4988,1.4988,1.4988,0,1.4226,1.4267,1.4322,1.4395,1.4444,1.4457,1.4516,1.4555,1.4615,1.4669,1.4722,1.4798,1.4861,1.4916,1.4982,1.5014,1.5025,1.503,1.5028,1.5037,1.4993,1.4977,1.5021,1.5021,1.5021,1.5021,1.5021,1.5021,1.4261,1.4329,1.4356,1.4447,1.4487,1.4553,1.4586,1.4631,1.4674,1.4757,1.481,1.4845,1.4899,1.4969,1.5028,1.5042,1.5065,1.5069,1.5086,1.5044,1.504,1.5036,1.5022,1.5074,1.5074,1.5125,1.5125,1.5126]},{"header":{"parameterUnit":"m.s-1","parameterCategory":1,"la1":30.2991,"la2":30.254,"lo1":-89.0895,"lo2":-89.0444,"dy":0.0017,"dx":0.0017,"nx":28,"ny":28,"refTime":"2025-09-19T09:00:00:Z","depth":0,"parameterNumber":3,"parameterNumberName":"V-component_of_WINDS"},"data":[0,0,0,0,0,0,0,0,0,0,0,0,0,0,0,0,0,0,0,0,0,0,0,0,0,0,0,0,0,0,0,0,0,0,0,0,0,0,0,0,0,0,0,0,0,0,0,0,0,0,0,0,0,0,0,0,0,0,3.021,3.0209,0,3.0095,3.0093,3.0092,2.9984,2.9982,2.9981,2.998,2.9856,2.9854,2.9851,0,0,0,0,0,0,0,0,0,0,0,0,0,3.0331,3.0329,3.021,3.0209,3.0207,3.0095,3.0093,3.0092,2.9984,2.9982,2.9981,2.9979,2.9856,2.9854,2.9851,0,0,0,0,0,0,0,0,0,0,0,0,0,3.0253,3.0329,3.021,3.014,3.0133,3.0095,3.0093,3.0091,2.9984,2.9982,2.998,2.9978,2.9857,2.9854,2.9851,2.9872,0,0,2.9841,2.984,0,0,0,0,0,0,0,0,3.0258,3.0249,3.0152,3.0145,3.0137,3.0052,3.009,3.0017,2.9985,3.0041,2.998,2.9978,2.9922,2.9913,2.9896,2.9866,2.986,2.9841,2.9839,2.9838,2.9837,0,0,0,0,0,0,0,3.0263,3.0253,3.0164,3.0151,3.0141,3.0112,3.0099,3.0076,2.9994,3.0035,3.0027,3.0016,2.9917,2.9899,2.9892,2.9859,2.9841,2.9838,2.9837,2.9835,2.9837,2.9838,0,0,0,0,0,0,3.028,3.0259,3.0168,3.0161,3.0194,3.0112,3.0097,3.0081,2.9994,2.9979,3.0017,3.0011,2.9905,2.9896,2.9887,2.9904,2.9838,2.9835,2.9833,2.9835,2.9837,2.9839,0,0,0,0,0,0,3.0283,3.0273,3.0172,3.0207,3.0192,3.0112,3.0095,3.008,3.0061,2.998,2.9964,3.0014,2.9904,2.9892,2.9876,2.9898,2.9834,2.9831,2.9832,2.9835,2.9838,2.9939,0,0,0,0,0,0,3.0287,3.0275,3.0284,3.0208,3.0191,3.0166,3.0096,3.0079,3.0057,3.0047,2.9973,2.9959,2.9901,2.9881,2.9873,2.9893,2.9828,2.983,2.9834,2.9837,2.9933,2.9945,2.9955,0,0,0,0,0,3.0292,3.0316,3.0285,3.0274,3.02,3.0167,3.0157,3.0092,3.0059,3.0066,3.0013,2.9961,2.9898,2.9881,2.987,2.989,2.9828,2.9833,2.9837,2.9928,2.9943,2.9955,0,0,0,0,0,0,3.0394,3.0305,3.0269,3.027,3.0227,3.0149,3.0156,3.0109,3.0073,3.0066,2.9985,2.9969,2.9962,2.9924,2.9907,2.9904,2.9856,2.9858,2.9929,2.9942,2.9952,2.9961,2.9826,0,0,0,0,0,3.0417,3.04,3.0322,3.033,3.031,3.0237,3.022,3.0174,3.0125,3.0106,3.0052,3.0006,2.9975,2.9956,2.9923,2.9928,2.9908,2.9935,2.9946,2.9956,2.9958,2.9955,2.9966,2.9853,2.9853,2.9853,0,0,3.0464,3.0413,3.0406,3.0349,3.031,3.0292,3.0222,3.0206,3.0191,3.0103,3.0085,3.0044,2.9986,2.998,2.9975,2.9948,2.9985,2.9961,2.9969,2.9966,2.9961,2.9971,2.9981,2.9856,2.9855,2.9855,0,0,3.0539,3.05,3.0501,3.0464,3.0407,3.0358,3.0359,3.0287,3.0257,3.0239,3.0172,3.0151,3.0101,3.0062,3.0035,3.0095,3.0044,3.0086,3.0142,3.014,3.0149,3.0157,3.0176,3.0184,3.0089,3.009,3.009,0,3.0603,3.0575,3.0507,3.0495,3.047,3.0392,3.0392,3.0358,3.0293,3.0277,3.0249,3.0183,3.0138,3.0121,3.0136,3.0118,3.0114,3.0094,3.0154,3.0161,3.0166,3.0184,3.0192,3.0095,3.0094,3.0094,3.0093,0,3.0655,3.0637,3.0644,3.0585,3.0561,3.0555,3.0485,3.0469,3.0424,3.0378,3.0358,3.0303,3.0256,3.0249,3.0205,3.0225,3.021,3.017,3.0119,3.0184,3.0199,3.0205,3.0103,3.0101,3.0099,3.0098,0,0,3.0791,3.0695,3.0699,3.067,3.0601,3.0584,3.0573,3.053,3.0517,3.0474,3.0461,3.042,3.0381,3.0351,3.0302,3.0301,3.0349,3.0259,3.0257,3.0276,3.0365,3.0395,3.0404,3.0316,3.0317,3.0318,3.0369,0,3.0853,3.0832,3.077,3.0766,3.0746,3.0671,3.0661,3.0617,3.0573,3.0548,3.0498,3.0469,3.0422,3.0403,3.0398,3.0345,3.0366,3.034,3.03,3.03,3.0316,3.0412,3.0444,3.0496,3.0375,3.0376,3.0376,0,3.0923,3.0887,3.0882,3.0812,3.0802,3.0794,3.0749,3.0727,3.0674,3.0641,3.0608,3.0554,3.0535,3.049,3.0462,3.0446,3.0426,3.0397,3.0398,3.039,3.0341,3.0406,3.0511,3.0518,3.0385,3.0385,3.0384,0,3.1021,3.097,3.096,3.0938,3.0858,3.0854,3.082,3.0765,3.0742,3.0702,3.0686,3.0643,3.062,3.0587,3.0521,3.0495,3.05,3.0449,3.047,3.0472,3.0473,3.0474,3.0575,3.0464,3.0464,3.0463,3.0463,0,3.1096,3.1095,3.1003,3.0996,3.0992,3.0921,3.0918,3.0876,3.0828,3.081,3.0742,3.0726,3.0642,3.0615,3.0564,3.0547,3.0537,3.0509,3.0495,3.0514,3.0518,3.0499,3.0493,3.0465,3.0465,3.0465,3.0464,0,3.1204,3.1142,3.1126,3.1051,3.1032,3.1033,3.0967,3.0957,3.0909,3.0887,3.0878,3.0802,3.0767,3.0699,3.0645,3.061,3.0604,3.0581,3.0623,3.0614,3.0638,3.0636,3.0729,3.0737,3.0623,3.0624,3.0625,0,3.1255,3.1253,3.1178,3.1162,3.1132,3.1107,3.1084,3.1013,3.0991,3.093,3.0926,3.0887,3.0851,3.0799,3.0737,3.0695,3.0669,3.0704,3.0662,3.0681,3.0667,3.0667,3.0665,3.0713,3.0715,3.0716,3.0717,0,3.1352,3.1321,3.1292,3.1252,3.1226,3.1191,3.1151,3.1141,3.106,3.1039,3.1004,3.0977,3.0922,3.0883,3.0831,3.0793,3.0741,3.0732,3.0734,3.0753,3.0776,3.0762,3.0647,3.0729,3.0728,3.0727,3.0727,3.0726,3.1431,3.1425,3.1372,3.1341,3.1304,3.1268,3.1254,3.1205,3.1175,3.1127,3.1086,3.1054,3.0998,3.0924,3.0889,3.0861,3.0836,3.084,3.084,3.0842,3.0849,3.0783,3.0852,3.0851,3.0851,3.085,3.085,0,3.1523,3.1485,3.1457,3.1405,3.138,3.1336,3.1289,3.127,3.1244,3.1198,3.1164,3.1123,3.1084,3.102,3.0975,3.0964,3.0939,3.0955,3.0954,3.0945,3.0875,3.0877,3.0976,3.0976,3.0976,3.0976,3.0976,3.0976,3.1568,3.1555,3.1518,3.1485,3.1446,3.1415,3.1392,3.1358,3.1321,3.1278,3.1247,3.1206,3.1151,3.1102,3.1063,3.1045,3.103,3.1054,3.1028,3.0962,3.0951,3.0939,3.0941,3.1052,3.1052,3.11,3.11,3.1101]}]]